sat.trackr.live / text

‹ back to catalog

HYDROGNSS-2

NORAD 66763 · 2025-276DB

PAYLOAD ACTIVE UNKNOWN

§ Identity

Operator
Country
ESA
Launch date
2025-11-28
Launch site
AFWTR
Launch vehicle
Mass (kg)
RCS (m²)

External: N2YO · Heavens-Above · Gunter

§ Orbital elements

Epoch: 2026-05-25T03:08:19.300416Z

Period
95.27 min
Inclination
97.4206°
Eccentricity
0.0013471
Mean motion
15.11468610 rev/d
Perigee alt
522.4 km
Apogee alt
541.0 km
Semi-major
6,909.9 km
B*
1.6635e-4
RAAN
218.2333°
Arg perigee
79.3651°
Mean anomaly
280.9095°
Rev number
2,686

§ Raw data

HYDROGNSS-21 66763U 25276DB  26145.13077894  .00002757  00000+0  16635-3 0  99912 66763  97.4206 218.2333 0013471  79.3651 280.9095 15.11468610 26865

JSON: /api/v1/satellites/66763 · /tle

For live sub-satellite position, see the globe view (requires WebGL).

§ Visibility from observer

Set your observer location to see the next 7 days of passes ≥ 10°. The values pass through the URL so the page stays shareable.

No JS? Fill the form by hand. The geolocation button needs JavaScript.